This is the latest recevied weather packets stored in our database for station/object VANOK. If no packets are shown the sender has not sent any weather packets the latest 1 day(s).
| Time | Temp. | Humidity | Pressure | Rain* | Wind** | Luminosity | Snow |
|---|---|---|---|---|---|---|---|
| 1777978041 | 7.22° C | 66% | 1006.4 hPa | - | 5.81 m/s, 285° | - | - |
| 1777976840 | 6.67° C | 70% | 1006.3 hPa | - | 7.15 m/s, 285° | - | - |
| 1777975641 | 6.67° C | 69% | 1006 hPa | - | 6.26 m/s, 287° | - | - |
| 1777974440 | 7.22° C | 71% | 1005.8 hPa | - | 7.6 m/s, 284° | - | - |
| 1777973240 | 7.22° C | 73% | 1005.5 hPa | - | 6.71 m/s, 282° | - | - |
| 1777972041 | 6.67° C | 75% | 1005.3 hPa | - | 6.26 m/s, 282° | - | - |
| 1777970842 | 6.67° C | 76% | 1005.1 hPa | - | 6.71 m/s, 279° | - | - |
| 1777969641 | 6.67° C | 78% | 1004.7 hPa | - | 8.49 m/s, 277° | - | - |
| 1777968441 | 6.67° C | 78% | 1004.4 hPa | - | 7.15 m/s, 275° | - | - |
| 1777967240 | 6.67° C | 77% | 1004.1 hPa | - | 7.6 m/s, 275° | - | - |
| 1777966040 | 6.67° C | 78% | 1003.7 hPa | - | 7.15 m/s, 273° | - | - |
| 1777964840 | 6.67° C | 77% | 1003.4 hPa | - | 6.71 m/s, 275° | - | - |
| 1777963640 | 6.67° C | 82% | 1002.9 hPa | - | 6.71 m/s, 273° | - | - |
| 1777962440 | 6.67° C | 81% | 1002.6 hPa | - | 8.05 m/s, 276° | - | - |
| 1777961240 | 6.67° C | 81% | 1002.3 hPa | - | 8.05 m/s, 276° | - | - |
| 1777960040 | 6.67° C | 79% | 1002.1 hPa | - | 8.94 m/s, 274° | - | - |
| 1777958840 | 7.22° C | 77% | 1001.8 hPa | - | 8.49 m/s, 258° | - | - |
| 1777957639 | 7.22° C | 75% | 1001.7 hPa | - | 8.49 m/s, 257° | - | - |
| 1777956440 | 7.78° C | 70% | 1001.5 hPa | - | 8.94 m/s, 253° | - | - |
| 1777955239 | 7.22° C | 74% | 1001.3 hPa | - | 8.49 m/s, 243° | - | - |
| 1777954039 | 7.22° C | 77% | 1001.2 hPa | - | 8.49 m/s, 239° | - | - |
| 1777952840 | 7.22° C | 75% | 1001.2 hPa | - | 8.49 m/s, 237° | - | - |
| 1777951639 | 7.22° C | 74% | 1001.1 hPa | - | 8.05 m/s, 235° | - | - |
* Rain since midnight (hover to see other rain measurements)
** Current wind speed in m/s (hover to see current wind gust speed)